SL-14 DEB

Satellite information

Favourite Embed

Satellite Type and Status

DEBRISIN ORBIT

Key statistics

Satellite SL-14 DEB at a glance.

Uptime

13998

Days in orbit

Revolutions

≈ 14.6

Per day

Orbit

LEO

Low Earth Orbit

Inclination

82.5

Latest

Satellite identification and parameters

Extended collection of information and parameters for SL-14 DEB.

Object identification

Identified? True

Debris? True

Object name: SL-14 DEB

International designator: 1987-068N

Object number (NORAD): 25187

Object ID (CCSDS): 25187

Country: COMMONWEALTH OF INDEPENDENT STATES (CIS)

Current information (Y/N): Y

RCS size: SMALL

Orbital parameters

Period: 98.402 minutes

Inclination: 82.5329 deg

SMA: 7060.387 km

Apoapsis: 683.049 km

Periapsis: 681.456 km

RAAN: 54.1879 deg

Eccentricy: 0.00011275

Argument of periapsis: 38.2423 deg

Mean anomaly: 321.8861 deg

Mean motion: 14.63389585 rev/day

Mean motion (dot): 0.00028403 rev/day2

B* drag term: 0.0054731935 1/REarth

Two-line elements (TLE)

Creation date: Dec. 11, 2025, 10:54 a.m.

Reference frame: TEME

Reference center: EARTH

Epoch: Dec. 11, 2025, 4:35 a.m. UTC

TLE line 0: 0 SL-14 DEB

TLE line 1: 1 25187U 87068N 25345.19143293 .00028403 00000-0 54732-2 0 9993

TLE line 2: 2 25187 82.5329 54.1879 0001128 38.2423 321.8861 14.63389585433238

Live tracking on map

Real-time ground track for satellite SL-14 DEB.

In-orbit conjunctions

A list of the most updated potential collisions computed for object SL-14 DEB.

Target Orbit TCA Probability of collision Miss distance Type
SARA SSO 2025-09-02 18:39:18 0.0002539091 818.0 (m) PAYLOAD
SARA SSO 2025-09-02 17:00:30 0.0001406107 118.0 (m) PAYLOAD
SARA SSO 2025-09-02 10:25:18 0.0002090384 497.0 (m) PAYLOAD
SARA SSO 2025-09-01 20:25:30 0.000322393 929.0 (m) PAYLOAD
SARA SSO 2025-09-01 08:53:55 0.002278537 248.0 (m) PAYLOAD

Associated space launch

Second generation soviet meteorological satellite

SL-14 DEB was lifted into orbit during the mission ‘Tsiklon-3 | Meteor-2 16’, on board a Tsiklon-3 space rocket.

The launch took place on Aug. 18, 1987, 2:27 a.m. from 32/1.

For more information about the launch, click the button.

Launch to space Tsiklon-3 | Meteor-2 16
Tsiklon-3 | Meteor-2 16

Agency: N/A

Status: Launch Successful

Launch date: Aug. 18, 1987, 2:27 a.m. UTC

Rocket: Tsiklon-3

Launch pad: 32/1

Location: Plesetsk Cosmodrome, Russian Federation

...

Latest news about this satellite

There are no fresh news available about this satellite. Check back as we update our databases every day.


Newsletter sign-up

Weekly statistics, charts and insights to help you stay on top of the space industry.